User: anonymous   Login
Location: Unspecified
(0.0000°N, 0.0000°E)
Time: 13:47:47
(UTC+00:00)
Language:

ARGOS - Orbit

View from above orbital plane
View from above orbital plane
View from above satellite
View from above satellite

Ground track
Ground track

The orbit data is extracted from the following two-line orbital elements,

1 25634U 99008A   24110.92176963  .00000361  00000-0  19008-3 0  9998
2 25634  98.4169 100.5849 0010511 160.5259 199.6322 14.19642749302444
Epoch (UTC): 19 April 2024 22:07:20
Eccentricity: 0.0010511
inclination: 98.4169°
perigee height: 819 km
apogee height: 834 km
right ascension of ascending node: 100.5849°
argument of perigee: 160.5259°
revolutions per day: 14.19642749
mean anomaly at epoch: 199.6322°
orbit number at epoch: 30244

The dashed part of the orbit path shows where the satellite is in the earth's shadow,  

DLR